Satellite-Ground Cal/Val Region Overpasses Predictions

Prediction of Satellite NPP Overpassing Cal/Val Region: PacNW

Region Location: (Latitude: 10.00, Longitude: 139.50) to (Latitude: 22.70, Longitude: 165.60).

Table of predicted overpasses for the next 14.0 days since TLE Epoch: 11/11/2020
Interval Starting Time Starting Location Ending Time Ending Location
1 11/12/2020 03:04:31 ( 10.01, 153.56) 11/12/2020 03:08:07 ( 22.69, 150.55)
2 11/12/2020 15:36:24 ( 22.69, 150.79) 11/12/2020 15:40:00 ( 10.01, 147.77)
3 11/13/2020 02:45:29 ( 10.02, 158.32) 11/13/2020 02:49:05 ( 22.70, 155.31)
4 11/13/2020 15:17:21 ( 22.69, 155.55) 11/13/2020 15:20:57 ( 10.01, 152.53)
5 11/14/2020 02:26:26 ( 10.02, 163.08) 11/14/2020 02:30:02 ( 22.70, 160.06)
6 11/14/2020 14:58:19 ( 22.69, 160.30) 11/14/2020 15:01:55 ( 10.00, 157.29)
7 11/15/2020 02:10:07 ( 19.59, 165.59) 11/15/2020 02:11:00 ( 22.70, 164.82)
8 11/15/2020 03:48:54 ( 10.03, 142.46) 11/15/2020 03:52:26 ( 22.47, 139.51)
9 11/15/2020 14:39:17 ( 22.68, 165.06) 11/15/2020 14:42:53 ( 10.00, 162.05)
10 11/15/2020 16:20:47 ( 22.67, 139.69) 11/15/2020 16:20:59 ( 21.97, 139.51)
11 11/16/2020 03:29:51 ( 10.03, 147.22) 11/16/2020 03:33:26 ( 22.65, 144.22)
12 11/16/2020 16:01:44 ( 22.67, 144.44) 11/16/2020 16:05:19 ( 10.05, 141.44)
13 11/17/2020 03:10:49 ( 10.03, 151.98) 11/17/2020 03:14:24 ( 22.65, 148.98)
14 11/17/2020 15:42:42 ( 22.67, 149.20) 11/17/2020 15:46:17 ( 10.05, 146.20)
15 11/18/2020 02:51:46 ( 10.04, 156.73) 11/18/2020 02:55:21 ( 22.66, 153.74)
16 11/18/2020 15:23:39 ( 22.66, 153.96) 11/18/2020 15:27:14 ( 10.04, 150.96)
17 11/19/2020 02:32:44 ( 10.04, 161.49) 11/19/2020 02:36:19 ( 22.66, 158.49)
18 11/19/2020 15:04:37 ( 22.66, 158.72) 11/19/2020 15:08:12 ( 10.04, 155.72)
19 11/20/2020 02:14:30 ( 12.92, 165.59) 11/20/2020 02:17:16 ( 22.67, 163.25)
20 11/20/2020 03:55:11 ( 10.05, 140.87) 11/20/2020 03:56:51 ( 15.93, 139.51)
21 11/20/2020 14:45:34 ( 22.66, 163.48) 11/20/2020 14:49:09 ( 10.03, 160.48)
22 11/21/2020 03:36:09 ( 10.06, 145.63) 11/21/2020 03:39:44 ( 22.68, 142.63)
23 11/21/2020 14:29:40 ( 11.62, 165.60) 11/21/2020 14:30:07 ( 10.03, 165.23)
24 11/21/2020 16:08:02 ( 22.64, 142.86) 11/21/2020 16:11:37 ( 10.02, 139.86)
25 11/22/2020 03:17:05 ( 10.00, 150.40) 11/22/2020 03:20:41 ( 22.68, 147.39)
26 11/22/2020 15:48:58 ( 22.70, 147.63) 11/22/2020 15:52:34 ( 10.02, 144.62)
27 11/23/2020 02:58:03 ( 10.01, 155.16) 11/23/2020 03:01:39 ( 22.69, 152.15)
28 11/23/2020 15:29:56 ( 22.69, 152.39) 11/23/2020 15:33:32 ( 10.01, 149.37)
29 11/24/2020 02:39:01 ( 10.01, 159.92) 11/24/2020 02:42:37 ( 22.70, 156.90)
30 11/24/2020 15:10:53 ( 22.69, 157.14) 11/24/2020 15:14:29 ( 10.01, 154.13)
31 11/25/2020 02:19:58 ( 10.02, 164.68) 11/25/2020 02:23:33 ( 22.64, 161.68)
